Location: Arrien
(43.3167°N, 0.1500°W)
Time: 22:46:35
(UTC+00:00)

Cosmos 1544 Rocket - Pass Details

Date: 15 October 2021
Orbit: 603 x 632 km, 82.5° (Epoch: 04 December)

Event Time Altitude Azimuth Distance (km) Brightness Sun altitude
Rises 19:40:15 0° 201° (SSW) 2,902 7.1 -26.6°
Reaches altitude 10° 19:42:32 10° 207° (SSW) 2,002 6.3 -27.0°
Maximum altitude 19:46:50 48° 282° (WNW) 827 4.5 -27.8°
Drops below altitude 10° 19:51:11 10° 357° (N) 2,023 6.4 -28.6°
Sets 19:53:30 0° 3° (N) 2,936 7.2 -29.0°
